Total_Precipitation_Accumulation
0.00 0.00 0.00 0.00 0.00 0.00 0.00 0.00 0.00 0.00 0.01 0.01 0.00 0.01 0.00 0.00 0.00 0.00 0.00 0.00 0.00 0.01 0.01 0.01 0.01 0.02 0.01 0.02 0.02 0.02 0.11 0.02 0.04 0.08 0.12 0.13 0.11 0.11 0.28 0.16 0.20 0.39
0.00 0.00 0.00 0.00 0.00 0.00 0.00 0.00 0.00 0.00 0.00 0.01 0.01 0.01 0.01 0.00 0.00 0.00 0.00 0.00 0.00 0.00 0.01 0.02 0.01 0.01 0.02 0.02 0.02 0.07 0.19 0.18 0.16 0.14 0.22 0.19 0.21 0.28 0.29 0.28 0.15 0.31
0.00 0.00 0.00 0.00 0.00 0.00 0.00 0.00 0.00 0.00 0.01 0.01 0.00 0.01 0.01 0.01 0.01 0.01 0.01 0.01 0.01 0.02 0.00 0.01 0.01 0.01 0.02 0.02 0.02 0.02 0.13 0.17 0.23 0.25 0.18 0.12 0.12 0.17 0.29 0.10 0.31 0.13
0.00 0.00 0.00 0.00 0.00 0.00 0.00 0.00 0.00 0.00 0.00 0.01 0.01 0.00 0.00 0.01 0.00 0.01 0.01 0.01 0.01 0.02 0.03 0.01 0.01 0.01 0.02 0.02 0.03 0.03 0.02 0.07 0.11 0.20 0.17 0.18 0.23 0.18 0.10 0.29 0.15 0.17
0.00 0.00 0.00 0.00 0.00 0.00 0.00 0.00 0.00 0.00 0.00 0.00 0.00 0.01 0.00 0.01 0.01 0.01 0.00 0.00 0.01 0.03 0.02 0.01 0.01 0.02 0.01 0.02 0.02 0.04 0.02 0.03 0.01 0.03 0.07 0.09 0.22 0.28 0.26 0.20 0.26 0.11
0.00 0.00 0.00 0.00 0.00 0.00 0.00 0.00 0.00 0.00 0.00 0.00 0.01 0.00 0.00 0.00 0.01 0.00 0.01 0.01 0.01 0.00 0.03 0.02 0.02 0.02 0.02 0.02 0.03 0.06 0.05 0.03 0.03 0.04 0.05 0.06 0.11 0.08 0.09 0.21 0.14 0.08
0.00 0.00 0.00 0.00 0.00 0.00 0.00 0.00 0.00 0.00 0.00 0.00 0.00 0.03 0.01 0.02 0.01 0.01 0.01 0.01 0.02 0.02 0.03 0.03 0.03 0.02 0.02 0.03 0.03 0.04 0.02 0.02 0.03 0.05 0.02 0.04 0.05 0.05 0.04 0.08 0.19 0.13
0.00 0.00 0.00 0.00 0.00 0.00 0.00 0.00 0.00 0.00 0.00 0.00 0.00 0.00 0.01 0.01 0.00 0.01 0.01 0.01 0.02 0.02 0.06 0.02 0.07 0.03 0.05 0.05 0.03 0.03 0.02 0.02 0.02 0.04 0.03 0.04 0.05 0.04 0.09 0.07 0.07 0.08
0.00 0.00 0.00 0.00 0.00 0.00 0.00 0.00 0.00 0.00 0.00 0.00 0.00 0.00 0.00 0.01 0.01 0.01 0.00 0.01 0.02 0.04 0.05 0.03 0.02 0.05 0.05 0.04 0.06 0.05 0.05 0.03 0.02 0.03 0.04 0.05 0.07 0.12 0.07 0.10 0.12 0.14
0.00 0.01 0.00 0.00 0.00 0.01 0.00 0.00 0.00 0.00 0.00 0.00 0.00 0.01 0.01 0.01 0.02 0.01 0.01 0.04 0.01 0.03 0.01 0.02 0.03 0.06 0.08 0.05 0.07 0.08 0.08 0.05 0.07 0.06 0.09 0.09 0.10 0.08 0.05 0.04 0.06 0.06
0.01 0.02 0.02 0.05 0.03 0.01 0.00 0.00 0.00 0.00 0.00 0.01 0.00 0.00 0.01 0.00 0.01 0.01 0.01 0.04 0.02 0.02 0.01 0.03 0.05 0.03 0.03 0.07 0.05 0.07 0.06 0.07 0.16 0.12 0.07 0.07 0.04 0.06 0.04 0.07 0.10 0.13
0.05 0.02 0.06 0.08 0.07 0.01 0.01 0.00 0.00 0.00 0.00 0.00 0.03 0.02 0.02 0.00 0.01 0.01 0.01 0.01 0.01 0.01 0.01 0.02 0.10 0.08 0.10 0.07 0.09 0.06 0.05 0.06 0.06 0.05 0.06 0.03 0.03 0.03 0.06 0.09 0.10 0.10
0.15 0.07 0.06 0.20 0.11 0.16 0.03 0.03 0.05 0.04 0.04 0.02 0.01 0.00 0.00 0.00 0.01 0.01 0.01 0.01 0.01 0.01 0.10 0.05 0.12 0.13 0.18 0.11 0.13 0.07 0.07 0.07 0.04 0.03 0.04 0.07 0.02 0.03 0.03 0.03 0.07 0.12
0.30 0.09 0.53 0.18 0.19 0.07 0.02 0.08 0.04 0.02 0.02 0.02 0.00 0.00 0.00 0.01 0.01 0.01 0.01 0.01 0.01 0.02 0.03 0.07 0.09 0.16 0.13 0.16 0.17 0.12 0.09 0.04 0.06 0.15 0.11 0.05 0.04 0.03 0.03 0.05 0.04 0.06
0.67 0.33 0.45 0.19 0.06 0.02 0.04 0.05 0.02 0.02 0.04 0.05 0.03 0.05 0.04 0.02 0.01 0.01 0.01 0.03 0.08 0.03 0.03 0.10 0.18 0.16 0.18 0.24 0.38 0.28 0.09 0.04 0.05 0.03 0.11 0.07 0.04 0.05 0.04 0.04 0.05 0.05
0.52 0.50 0.20 0.15 0.14 0.05 0.11 0.13 0.09 0.16 0.11 0.08 0.09 0.11 0.04 0.02 0.03 0.02 0.01 0.01 0.01 0.01 0.06 0.11 0.15 0.17 0.25 0.13 0.11 0.06 0.04 0.05 0.02 0.03 0.06 0.04 0.05 0.04 0.03 0.04 0.07 0.10
0.81 0.30 0.10 0.31 0.18 0.18 0.39 0.35 0.33 0.23 0.22 0.08 0.04 0.05 0.05 0.04 0.02 0.02 0.03 0.03 0.02 0.04 0.06 0.07 0.19 0.31 0.10 0.11 0.05 0.01 0.02 0.02 0.03 0.04 0.02 0.03 0.09 0.07 0.04 0.04 0.08 0.08
0.46 0.19 0.32 0.47 0.47 0.72 0.76 0.33 0.14 0.22 0.12 0.07 0.04 0.04 0.03 0.01 0.02 0.02 0.05 0.08 0.01 0.01 0.03 0.05 0.30 0.12 0.08 0.05 0.02 0.01 0.02 0.02 0.02 0.03 0.03 0.02 0.05 0.09 0.07 0.08 0.07 0.24
0.24 0.58 0.95 0.85 0.88 0.82 0.59 0.08 0.03 0.02 0.03 0.03 0.03 0.01 0.01 0.11 0.07 0.01 0.01 0.01 0.01 0.01 0.05 0.04 0.30 0.17 0.04 0.01 0.00 0.00 0.03 0.01 0.02 0.03 0.03 0.06 0.05 0.06 0.09 0.11 0.45 0.55
0.20 0.54 0.75 0.70 0.65 0.75 0.16 0.09 0.04 0.04 0.04 0.03 0.06 0.05 0.01 0.01 0.01 0.01 0.01 0.01 0.05 0.18 0.07 0.04 0.19 0.15 0.00 0.00 0.00 0.00 0.00 0.02 0.02 0.06 0.07 0.05 0.05 0.05 0.14 0.48 0.72 0.61
0.45 1.07 1.14 0.88 0.49 0.17 0.15 0.13 0.09 0.07 0.10 0.12 0.10 0.03 0.04 0.04 0.03 0.05 0.00 0.21 0.35 0.22 0.12 0.08 0.09 0.02 0.00 0.00 0.00 0.00 0.03 0.03 0.02 0.06 0.10 0.07 0.12 0.09 0.43 0.94 0.85 0.70
0.79 1.02 0.68 0.36 0.13 0.16 0.22 0.08 0.04 0.03 0.04 0.03 0.02 0.02 0.04 0.10 0.05 0.01 0.08 0.24 0.15 0.12 0.06 0.02 0.04 0.01 0.00 0.01 0.02 0.01 0.03 0.03 0.07 0.08 0.07 0.12 0.08 0.35 0.81 1.16 0.85 0.54
0.97 0.75 0.92 0.15 0.21 0.11 0.05 0.03 0.04 0.04 0.04 0.03 0.04 0.04 0.03 0.02 0.01 0.05 0.23 0.22 0.10 0.07 0.07 0.05 0.08 0.05 0.05 0.14 0.03 0.02 0.03 0.06 0.11 0.06 0.06 0.12 0.74 0.37 0.73 0.55 0.36 0.61
0.92 0.56 0.36 0.33 0.41 0.07 0.04 0.05 0.06 0.03 0.03 0.01 0.02 0.03 0.02 0.05 0.08 0.11 0.31 0.16 0.11 0.07 0.07 0.12 0.06 0.09 0.25 0.13 0.04 0.02 0.04 0.09 0.11 0.08 0.10 0.77 0.68 0.37 0.54 0.46 0.54 0.44
0.17 0.17 0.18 0.07 0.06 0.09 0.06 0.03 0.02 0.02 0.01 0.05 0.04 0.07 0.11 0.08 0.05 0.13 0.22 0.21 0.23 0.13 0.04 0.05 0.12 0.20 0.09 0.09 0.04 0.03 0.08 0.12 0.16 0.25 0.35 0.73 0.66 0.74 0.74 0.50 0.27 0.32
0.07 0.06 0.03 0.03 0.04 0.04 0.03 0.01 0.05 0.06 0.03 0.05 0.12 0.27 0.08 0.11 0.06 0.12 0.29 0.36 0.14 0.15 0.18 0.20 0.20 0.37 0.36 0.19 0.07 0.03 0.02 0.12 0.50 0.25 0.22 0.49 0.33 0.10 0.24 0.16 0.18 0.27